Time,TemperatureF,DewpointF,PressureIn,WindDirection,WindDirectionDegrees,WindSpeedMPH,WindSpeedGustMPH,Humidity,HourlyPrecipIn,Conditions,Clouds,dailyrainin,SoftwareType,DateUTC
2013-10-08 00:00:00,33.3,22.8,30.09,SSW,194,0.0,0.0,65,0.00,,,0.00,Wunderground v.1.15,2013-10-08 06:00:00,
2013-10-08 00:09:00,33.0,22.5,30.09,SSW,194,0.0,0.0,65,0.00,,,0.00,Wunderground v.1.15,2013-10-08 06:09:00,
2013-10-08 00:14:00,32.9,22.8,30.09,SSW,194,0.0,0.0,66,0.00,,,0.00,Wunderground v.1.15,2013-10-08 06:14:00,
2013-10-08 00:19:00,32.7,22.6,30.09,South,188,0.0,0.0,66,0.00,,,0.00,Wunderground v.1.15,2013-10-08 06:19:00,
2013-10-08 00:24:00,32.6,22.5,30.09,SSW,196,0.0,0.0,66,0.00,,,0.00,Wunderground v.1.15,2013-10-08 06:24:00,
2013-10-08 00:29:00,32.4,22.7,30.09,SSW,196,0.0,0.0,67,0.00,,,0.00,Wunderground v.1.15,2013-10-08 06:29:00,
2013-10-08 00:39:00,32.1,22.7,30.09,SSW,196,0.0,0.0,68,0.00,,,0.00,Wunderground v.1.15,2013-10-08 06:39:00,
2013-10-08 00:44:00,31.9,22.5,30.09,SSW,196,0.0,0.0,68,0.00,,,0.00,Wunderground v.1.15,2013-10-08 06:44:00,
2013-10-08 00:49:00,31.8,22.8,30.09,SSW,196,0.0,0.0,69,0.00,,,0.00,Wunderground v.1.15,2013-10-08 06:49:00,
2013-10-08 00:54:00,31.6,22.6,30.09,SSW,196,0.0,0.0,69,0.00,,,0.00,Wunderground v.1.15,2013-10-08 06:54:00,
2013-10-08 01:00:00,31.5,22.1,30.09,SSW,196,0.0,0.0,68,0.00,,,0.00,Wunderground v.1.15,2013-10-08 07:00:00,
2013-10-08 01:09:00,31.3,22.6,30.09,SSW,196,0.0,0.0,70,0.00,,,0.00,Wunderground v.1.15,2013-10-08 07:09:00,
2013-10-08 01:19:00,31.2,22.2,30.09,SSW,196,0.0,0.0,69,0.00,,,0.00,Wunderground v.1.15,2013-10-08 07:19:00,
2013-10-08 01:24:00,31.1,22.5,30.09,SSW,196,0.0,0.0,70,0.00,,,0.00,Wunderground v.1.15,2013-10-08 07:24:00,
2013-10-08 01:29:00,31.0,22.4,30.09,SSW,196,0.0,0.0,70,0.00,,,0.00,Wunderground v.1.15,2013-10-08 07:29:00,
2013-10-08 01:39:00,30.9,22.3,30.09,SSW,196,0.0,0.0,70,0.00,,,0.00,Wunderground v.1.15,2013-10-08 07:39:00,
2013-10-08 01:44:00,30.9,22.6,30.08,SW,217,0.0,0.0,71,0.00,,,0.00,Wunderground v.1.15,2013-10-08 07:44:00,
2013-10-08 01:54:00,30.9,22.6,30.08,SW,217,0.0,0.0,71,0.00,,,0.00,Wunderground v.1.15,2013-10-08 07:54:00,
2013-10-08 02:00:00,31.0,22.4,30.08,SW,217,0.0,0.0,70,0.00,,,0.00,Wunderground v.1.15,2013-10-08 08:00:00,
2013-10-08 02:09:00,31.3,22.6,30.09,SW,217,0.0,0.0,70,0.00,,,0.00,Wunderground v.1.15,2013-10-08 08:09:00,
2013-10-08 02:14:00,31.2,22.5,30.09,SW,217,0.0,0.0,70,0.00,,,0.00,Wunderground v.1.15,2013-10-08 08:14:00,
2013-10-08 02:19:00,31.3,22.6,30.09,SW,217,0.0,0.0,70,0.00,,,0.00,Wunderground v.1.15,2013-10-08 08:19:00,
2013-10-08 02:29:00,31.2,22.2,30.08,SW,217,0.0,0.0,69,0.00,,,0.00,Wunderground v.1.15,2013-10-08 08:29:00,
2013-10-08 02:39:00,30.9,22.3,30.08,SW,217,0.0,0.0,70,0.00,,,0.00,Wunderground v.1.15,2013-10-08 08:39:00,
2013-10-08 02:44:00,30.8,22.2,30.08,SW,217,0.0,0.0,70,0.00,,,0.00,Wunderground v.1.15,2013-10-08 08:44:00,
2013-10-08 02:49:00,30.7,22.4,30.07,SW,217,0.0,0.0,71,0.00,,,0.00,Wunderground v.1.15,2013-10-08 08:49:00,
2013-10-08 02:54:00,30.6,22.3,30.07,SW,217,0.0,0.0,71,0.00,,,0.00,Wunderground v.1.15,2013-10-08 08:54:00,
2013-10-08 03:00:00,30.5,22.2,30.07,SW,217,0.0,0.0,71,0.00,,,0.00,Wunderground v.1.15,2013-10-08 09:00:00,
2013-10-08 03:09:00,30.3,22.0,30.07,SW,217,0.0,0.0,71,0.00,,,0.00,Wunderground v.1.15,2013-10-08 09:09:00,
2013-10-08 03:14:00,30.2,21.9,30.06,SW,217,0.0,0.0,71,0.00,,,0.00,Wunderground v.1.15,2013-10-08 09:14:00,
2013-10-08 03:19:00,30.3,22.4,30.06,SW,217,0.0,0.0,72,0.00,,,0.00,Wunderground v.1.15,2013-10-08 09:19:00,
2013-10-08 03:24:00,30.4,22.1,30.06,SW,217,0.0,0.0,71,0.00,,,0.00,Wunderground v.1.15,2013-10-08 09:24:00,
2013-10-08 03:29:00,30.5,22.2,30.06,SW,217,0.0,0.0,71,0.00,,,0.00,Wunderground v.1.15,2013-10-08 09:29:00,
2013-10-08 03:34:00,30.6,22.3,30.06,SW,217,0.0,0.0,71,0.00,,,0.00,Wunderground v.1.15,2013-10-08 09:34:00,
2013-10-08 03:39:00,30.7,22.4,30.06,SW,217,0.0,0.0,71,0.00,,,0.00,Wunderground v.1.15,2013-10-08 09:39:00,
2013-10-08 03:44:00,30.7,22.4,30.05,SW,217,0.0,0.0,71,0.00,,,0.00,Wunderground v.1.15,2013-10-08 09:44:00,
2013-10-08 03:54:00,30.7,22.4,30.05,SW,217,0.0,0.0,71,0.00,,,0.00,Wunderground v.1.15,2013-10-08 09:54:00,
2013-10-08 04:00:00,30.7,22.4,30.05,SW,217,0.0,0.0,71,0.00,,,0.00,Wunderground v.1.15,2013-10-08 10:00:00,
2013-10-08 04:09:00,30.5,22.2,30.05,South,184,0.0,0.0,71,0.00,,,0.00,Wunderground v.1.15,2013-10-08 10:09:00,
2013-10-08 04:14:00,30.5,22.2,30.05,South,185,0.0,0.0,71,0.00,,,0.00,Wunderground v.1.15,2013-10-08 10:14:00,
2013-10-08 04:19:00,30.5,22.2,30.05,SW,217,0.0,0.0,71,0.00,,,0.00,Wunderground v.1.15,2013-10-08 10:19:00,
2013-10-08 04:24:00,30.5,22.2,30.05,SW,220,0.0,0.0,71,0.00,,,0.00,Wunderground v.1.15,2013-10-08 10:24:00,
2013-10-08 04:29:00,30.5,22.2,30.05,SW,220,0.0,0.0,71,0.00,,,0.00,Wunderground v.1.15,2013-10-08 10:29:00,
2013-10-08 04:34:00,30.5,22.2,30.05,SW,220,0.0,0.0,71,0.00,,,0.00,Wunderground v.1.15,2013-10-08 10:34:00,
2013-10-08 04:39:00,30.5,22.2,30.05,SW,220,0.0,0.0,71,0.00,,,0.00,Wunderground v.1.15,2013-10-08 10:39:00,
2013-10-08 04:49:00,30.3,22.4,30.05,SW,220,0.0,0.0,72,0.00,,,0.00,Wunderground v.1.15,2013-10-08 10:49:00,
2013-10-08 04:54:00,30.3,22.4,30.05,SW,220,0.0,0.0,72,0.00,,,0.00,Wunderground v.1.15,2013-10-08 10:54:00,
2013-10-08 05:00:00,30.5,22.5,30.05,SW,220,0.0,0.0,72,0.00,,,0.00,Wunderground v.1.15,2013-10-08 11:00:00,
2013-10-08 05:09:00,30.5,22.9,30.05,SW,220,0.0,0.0,73,0.00,,,0.00,Wunderground v.1.15,2013-10-08 11:09:00,
2013-10-08 05:14:00,30.5,22.5,30.05,SW,220,0.0,0.0,72,0.00,,,0.00,Wunderground v.1.15,2013-10-08 11:14:00,
2013-10-08 05:24:00,30.4,22.8,30.05,SW,220,0.0,0.0,73,0.00,,,0.00,Wunderground v.1.15,2013-10-08 11:24:00,
2013-10-08 05:29:00,30.2,22.6,30.05,SW,220,0.0,0.0,73,0.00,,,0.00,Wunderground v.1.15,2013-10-08 11:29:00,
2013-10-08 05:39:00,29.8,22.5,30.05,SW,217,0.0,0.0,74,0.00,,,0.00,Wunderground v.1.15,2013-10-08 11:39:00,
2013-10-08 05:44:00,29.7,22.7,30.05,SW,217,0.0,0.0,75,0.00,,,0.00,Wunderground v.1.15,2013-10-08 11:44:00,
2013-10-08 05:49:00,29.7,22.7,30.05,SW,217,0.0,0.0,75,0.00,,,0.00,Wunderground v.1.15,2013-10-08 11:49:00,
2013-10-08 06:00:00,29.5,22.9,30.05,SW,217,0.0,0.0,76,0.00,,,0.00,Wunderground v.1.15,2013-10-08 12:00:00,
2013-10-08 06:09:00,29.7,23.1,30.05,SW,217,0.0,0.0,76,0.00,,,0.00,Wunderground v.1.15,2013-10-08 12:09:00,
2013-10-08 06:14:00,29.8,23.2,30.04,SW,217,0.0,0.0,76,0.00,,,0.00,Wunderground v.1.15,2013-10-08 12:14:00,
2013-10-08 06:19:00,29.8,23.2,30.04,SW,217,0.0,0.0,76,0.00,,,0.00,Wunderground v.1.15,2013-10-08 12:19:00,
2013-10-08 06:24:00,29.8,23.2,30.03,SW,217,0.0,0.0,76,0.00,,,0.00,Wunderground v.1.15,2013-10-08 12:24:00,
2013-10-08 06:34:00,30.1,23.4,30.03,SW,217,0.0,0.0,76,0.00,,,0.00,Wunderground v.1.15,2013-10-08 12:34:00,
2013-10-08 06:39:00,30.3,23.6,30.03,SW,217,0.0,0.0,76,0.00,,,0.00,Wunderground v.1.15,2013-10-08 12:39:00,
2013-10-08 06:44:00,30.5,23.8,30.03,SW,217,0.0,0.0,76,0.00,,,0.00,Wunderground v.1.15,2013-10-08 12:44:00,
2013-10-08 06:49:00,30.5,23.5,30.03,SW,217,0.0,0.0,75,0.00,,,0.00,Wunderground v.1.15,2013-10-08 12:49:00,
2013-10-08 06:54:00,30.6,23.6,30.03,SW,217,0.0,0.0,75,0.00,,,0.00,Wunderground v.1.15,2013-10-08 12:54:00,
2013-10-08 07:00:00,30.5,23.5,30.03,SW,217,0.0,0.0,75,0.00,,,0.00,Wunderground v.1.15,2013-10-08 13:00:00,
2013-10-08 07:09:00,30.3,23.6,30.03,SW,217,0.0,0.0,76,0.00,,,0.00,Wunderground v.1.15,2013-10-08 13:09:00,
2013-10-08 07:14:00,30.3,23.6,30.03,SW,217,0.0,0.0,76,0.00,,,0.00,Wunderground v.1.15,2013-10-08 13:14:00,
2013-10-08 07:19:00,30.3,23.6,30.04,SW,217,0.0,0.0,76,0.00,,,0.00,Wunderground v.1.15,2013-10-08 13:19:00,
2013-10-08 07:24:00,30.4,23.7,30.04,SW,217,0.0,0.0,76,0.00,,,0.00,Wunderground v.1.15,2013-10-08 13:24:00,
2013-10-08 07:29:00,30.4,23.7,30.04,SW,217,0.0,0.0,76,0.00,,,0.00,Wunderground v.1.15,2013-10-08 13:29:00,
2013-10-08 07:39:00,30.4,23.7,30.04,SW,217,0.0,0.0,76,0.00,,,0.00,Wunderground v.1.15,2013-10-08 13:39:00,
2013-10-08 07:44:00,30.5,23.8,30.04,SW,217,0.0,0.0,76,0.00,,,0.00,Wunderground v.1.15,2013-10-08 13:44:00,
2013-10-08 07:49:00,30.6,23.9,30.04,SW,217,0.0,0.0,76,0.00,,,0.00,Wunderground v.1.15,2013-10-08 13:49:00,
2013-10-08 07:54:00,31.0,24.6,30.04,SW,217,0.0,0.0,77,0.00,,,0.00,Wunderground v.1.15,2013-10-08 13:54:00,
2013-10-08 08:00:00,31.4,25.0,30.03,SW,217,0.0,0.0,77,0.00,,,0.00,Wunderground v.1.15,2013-10-08 14:00:00,
2013-10-08 08:09:00,32.0,25.0,30.03,SW,217,0.0,0.0,75,0.00,,,0.00,Wunderground v.1.15,2013-10-08 14:09:00,
2013-10-08 08:19:00,32.5,25.5,30.03,SW,217,0.0,0.0,75,0.00,,,0.00,Wunderground v.1.15,2013-10-08 14:19:00,
2013-10-08 08:24:00,32.8,26.1,30.03,SW,217,0.0,0.0,76,0.00,,,0.00,Wunderground v.1.15,2013-10-08 14:24:00,
2013-10-08 08:29:00,33.0,25.9,30.03,SW,217,0.0,0.0,75,0.00,,,0.00,Wunderground v.1.15,2013-10-08 14:29:00,
2013-10-08 08:39:00,33.3,26.2,30.03,SW,217,0.0,0.0,75,0.00,,,0.00,Wunderground v.1.15,2013-10-08 14:39:00,
2013-10-08 08:44:00,33.8,27.0,30.03,SW,217,0.0,0.0,76,0.00,,,0.00,Wunderground v.1.15,2013-10-08 14:44:00,
2013-10-08 08:54:00,35.5,28.0,30.03,SW,217,0.0,0.0,74,0.00,,,0.00,Wunderground v.1.15,2013-10-08 14:54:00,
2013-10-08 09:00:00,37.4,29.5,30.03,SW,217,0.0,0.0,73,0.00,,,0.00,Wunderground v.1.15,2013-10-08 15:00:00,
2013-10-08 09:09:00,40.5,31.5,30.02,SW,217,0.0,0.0,70,0.00,,,0.00,Wunderground v.1.15,2013-10-08 15:09:00,
2013-10-08 09:14:00,42.0,31.5,30.02,SW,217,0.0,0.0,66,0.00,,,0.00,Wunderground v.1.15,2013-10-08 15:14:00,
2013-10-08 09:19:00,44.0,31.0,30.02,SW,217,0.0,0.0,60,0.00,,,0.00,Wunderground v.1.15,2013-10-08 15:19:00,
2013-10-08 09:29:00,48.8,29.4,30.02,NW,322,0.0,0.0,47,0.00,,,0.00,Wunderground v.1.15,2013-10-08 15:29:00,
2013-10-08 09:35:00,50.5,28.2,30.01,NNW,333,1.0,1.0,42,0.00,,,0.00,Wunderground v.1.15,2013-10-08 15:35:00,
2013-10-08 09:40:00,51.4,27.2,30.01,NNW,342,1.0,1.0,39,0.00,,,0.00,Wunderground v.1.15,2013-10-08 15:40:00,
2013-10-08 09:49:00,52.4,26.9,30.01,NNW,340,2.0,2.0,37,0.00,,,0.00,Wunderground v.1.15,2013-10-08 15:49:00,
2013-10-08 09:54:00,52.9,28.0,30.01,NW,313,3.0,3.0,38,0.00,,,0.00,Wunderground v.1.15,2013-10-08 15:54:00,
2013-10-08 10:00:00,52.6,27.7,30.00,NNW,338,2.0,2.0,38,0.00,,,0.00,Wunderground v.1.15,2013-10-08 16:00:00,
2013-10-08 10:09:00,52.0,28.4,30.01,NNW,331,1.0,1.0,40,0.00,,,0.00,Wunderground v.1.15,2013-10-08 16:09:00,
2013-10-08 10:15:00,51.9,30.6,30.00,NNW,331,0.0,1.0,44,0.00,,,0.00,Wunderground v.1.15,2013-10-08 16:15:00,
2013-10-08 10:24:00,52.4,29.4,30.00,NNW,331,0.0,0.0,41,0.00,,,0.00,Wunderground v.1.15,2013-10-08 16:24:00,
2013-10-08 10:29:00,53.7,29.3,29.99,NNW,333,0.0,3.0,39,0.00,,,0.00,Wunderground v.1.15,2013-10-08 16:29:00,
2013-10-08 10:39:00,56.2,28.2,29.99,NNE,24,2.0,3.0,34,0.00,,,0.00,Wunderground v.1.15,2013-10-08 16:39:00,
2013-10-08 10:44:00,56.6,27.0,29.99,NNW,338,3.0,5.0,32,0.00,,,0.00,Wunderground v.1.15,2013-10-08 16:44:00,
2013-10-08 10:49:00,56.9,27.3,29.99,NNW,338,4.0,6.0,32,0.00,,,0.00,Wunderground v.1.15,2013-10-08 16:49:00,
2013-10-08 10:54:00,56.6,26.3,29.98,WNW,284,5.0,6.0,31,0.00,,,0.00,Wunderground v.1.15,2013-10-08 16:54:00,
2013-10-08 11:00:00,56.4,26.1,29.98,NNW,345,5.0,5.0,31,0.00,,,0.00,Wunderground v.1.15,2013-10-08 17:00:00,
2013-10-08 11:10:00,57.8,26.5,29.98,NNW,339,4.0,4.0,30,0.00,,,0.00,Wunderground v.1.15,2013-10-08 17:10:00,
2013-10-08 11:20:00,58.3,27.0,29.97,NNW,331,6.0,6.0,30,0.00,,,0.00,Wunderground v.1.15,2013-10-08 17:20:00,
2013-10-08 11:29:00,58.9,26.7,29.97,North,11,5.0,5.0,29,0.00,,,0.00,Wunderground v.1.15,2013-10-08 17:29:00,
2013-10-08 11:35:00,59.5,25.5,29.97,NNW,346,4.0,7.0,27,0.00,,,0.00,Wunderground v.1.15,2013-10-08 17:35:00,
2013-10-08 11:40:00,59.3,25.3,29.97,NNW,329,5.0,6.0,27,0.00,,,0.00,Wunderground v.1.15,2013-10-08 17:40:00,
2013-10-08 11:49:00,59.4,25.4,29.97,NNW,338,4.0,5.0,27,0.00,,,0.00,Wunderground v.1.15,2013-10-08 17:49:00,
2013-10-08 12:00:00,59.5,24.5,29.96,WNW,302,6.0,6.0,26,0.00,,,0.00,Wunderground v.1.15,2013-10-08 18:00:00,
2013-10-08 12:08:00,60.2,24.2,29.96,NNW,329,5.0,5.0,25,0.00,,,0.00,Wunderground v.1.15,2013-10-08 18:08:00,
2013-10-08 12:13:00,60.4,24.4,29.96,NW,326,5.0,5.0,25,0.00,,,0.00,Wunderground v.1.15,2013-10-08 18:13:00,
2013-10-08 12:18:00,60.3,25.2,29.95,NW,311,4.0,5.0,26,0.00,,,0.00,Wunderground v.1.15,2013-10-08 18:18:00,
2013-10-08 12:23:00,60.4,24.4,29.95,NW,325,5.0,15.0,25,0.00,,,0.00,Wunderground v.1.15,2013-10-08 18:23:00,
2013-10-08 12:29:00,60.3,24.3,29.95,NW,309,5.0,5.0,25,0.00,,,0.00,Wunderground v.1.15,2013-10-08 18:29:00,
2013-10-08 12:38:00,61.2,24.1,29.94,North,360,3.0,3.0,24,0.00,,,0.00,Wunderground v.1.15,2013-10-08 18:38:00,
2013-10-08 12:43:00,61.1,25.0,29.94,NNW,332,3.0,4.0,25,0.00,,,0.00,Wunderground v.1.15,2013-10-08 18:43:00,
2013-10-08 12:49:00,61.3,25.1,29.94,NNW,343,3.0,3.0,25,0.00,,,0.00,Wunderground v.1.15,2013-10-08 18:49:00,
2013-10-08 12:59:00,61.6,25.4,29.93,NW,326,2.0,3.0,25,0.00,,,0.00,Wunderground v.1.15,2013-10-08 18:59:00,
2013-10-08 13:08:00,60.9,24.8,29.92,NW,323,4.0,4.0,25,0.00,,,0.00,Wunderground v.1.15,2013-10-08 19:08:00,
2013-10-08 13:18:00,61.2,24.1,29.92,NNW,343,3.0,5.0,24,0.00,,,0.00,Wunderground v.1.15,2013-10-08 19:18:00,
2013-10-08 13:23:00,61.2,25.1,29.91,WNW,293,3.0,5.0,25,0.00,,,0.00,Wunderground v.1.15,2013-10-08 19:23:00,
2013-10-08 13:28:00,62.5,27.1,29.91,NW,310,2.0,5.0,26,0.00,,,0.00,Wunderground v.1.15,2013-10-08 19:28:00,
2013-10-08 13:38:00,62.3,25.0,29.91,NNW,340,3.0,5.0,24,0.00,,,0.00,Wunderground v.1.15,2013-10-08 19:38:00,
2013-10-08 13:43:00,62.3,26.0,29.90,NNW,343,3.0,5.0,25,0.00,,,0.00,Wunderground v.1.15,2013-10-08 19:43:00,
2013-10-08 13:53:00,61.4,24.2,29.90,NNW,328,1.0,3.0,24,0.00,,,0.00,Wunderground v.1.15,2013-10-08 19:53:00,
2013-10-08 13:59:00,62.2,24.9,29.89,NW,317,0.0,3.0,24,0.00,,,0.00,Wunderground v.1.15,2013-10-08 19:59:00,
2013-10-08 14:09:00,62.8,23.3,29.89,NNE,31,2.0,2.0,22,0.00,,,0.00,Wunderground v.1.15,2013-10-08 20:09:00,
2013-10-08 14:18:00,62.6,25.3,29.89,NNW,336,3.0,6.0,24,0.00,,,0.00,Wunderground v.1.15,2013-10-08 20:18:00,
2013-10-08 14:23:00,62.7,24.3,29.88,NNW,333,4.0,6.0,23,0.00,,,0.00,Wunderground v.1.15,2013-10-08 20:23:00,
2013-10-08 14:28:00,62.8,24.4,29.88,NNW,342,6.0,6.0,23,0.00,,,0.00,Wunderground v.1.15,2013-10-08 20:28:00,
2013-10-08 14:34:00,62.9,24.5,29.88,NNW,334,5.0,6.0,23,0.00,,,0.00,Wunderground v.1.15,2013-10-08 20:34:00,
2013-10-08 14:39:00,63.0,25.6,29.88,NNW,329,6.0,6.0,24,0.00,,,0.00,Wunderground v.1.15,2013-10-08 20:39:00,
2013-10-08 14:48:00,62.5,24.2,29.88,NNW,336,5.0,6.0,23,0.00,,,0.00,Wunderground v.1.15,2013-10-08 20:48:00,
2013-10-08 14:53:00,62.8,26.4,29.88,NNW,332,4.0,9.0,25,0.00,,,0.00,Wunderground v.1.15,2013-10-08 20:53:00,
2013-10-08 14:59:00,62.9,24.5,29.88,NNW,338,5.0,8.0,23,0.00,,,0.00,Wunderground v.1.15,2013-10-08 20:59:00,
2013-10-08 15:08:00,62.5,23.1,29.87,North,5,4.0,4.0,22,0.00,,,0.00,Wunderground v.1.15,2013-10-08 21:08:00,
2013-10-08 15:13:00,62.7,23.3,29.87,North,5,5.0,5.0,22,0.00,,,0.00,Wunderground v.1.15,2013-10-08 21:13:00,
2013-10-08 15:19:00,63.0,22.4,29.87,NW,316,5.0,6.0,21,0.00,,,0.00,Wunderground v.1.15,2013-10-08 21:19:00,
2013-10-08 15:24:00,63.1,22.5,29.87,NW,323,5.0,6.0,21,0.00,,,0.00,Wunderground v.1.15,2013-10-08 21:24:00,
2013-10-08 15:34:00,62.8,22.2,29.86,North,355,4.0,4.0,21,0.00,,,0.00,Wunderground v.1.15,2013-10-08 21:34:00,
2013-10-08 15:44:00,62.6,22.1,29.86,NNW,329,5.0,6.0,21,0.00,,,0.00,Wunderground v.1.15,2013-10-08 21:44:00,
2013-10-08 15:49:00,62.6,22.1,29.86,NNW,339,5.0,7.0,21,0.00,,,0.00,Wunderground v.1.15,2013-10-08 21:49:00,
2013-10-08 15:54:00,62.7,23.3,29.86,NW,311,3.0,7.0,22,0.00,,,0.00,Wunderground v.1.15,2013-10-08 21:54:00,
2013-10-08 15:59:00,62.6,23.2,29.86,WNW,303,3.0,8.0,22,0.00,,,0.00,Wunderground v.1.15,2013-10-08 21:59:00,
2013-10-08 16:08:00,62.5,22.0,29.86,NNW,331,5.0,5.0,21,0.00,,,0.00,Wunderground v.1.15,2013-10-08 22:08:00,
2013-10-08 16:13:00,62.3,24.0,29.86,West,260,4.0,5.0,23,0.00,,,0.00,Wunderground v.1.15,2013-10-08 22:13:00,
2013-10-08 16:23:00,62.2,22.8,29.86,NNW,344,3.0,6.0,22,0.00,,,0.00,Wunderground v.1.15,2013-10-08 22:23:00,
2013-10-08 16:29:00,62.2,22.8,29.85,NNW,330,4.0,4.0,22,0.00,,,0.00,Wunderground v.1.15,2013-10-08 22:29:00,
2013-10-08 16:38:00,62.1,23.8,29.85,NW,323,4.0,10.0,23,0.00,,,0.00,Wunderground v.1.15,2013-10-08 22:38:00,
2013-10-08 16:43:00,62.0,24.8,29.85,NW,324,6.0,10.0,24,0.00,,,0.00,Wunderground v.1.15,2013-10-08 22:43:00,
2013-10-08 16:49:00,61.7,23.5,29.85,NNW,335,6.0,6.0,23,0.00,,,0.00,Wunderground v.1.15,2013-10-08 22:49:00,
2013-10-08 16:53:00,61.6,24.4,29.85,NNW,333,3.0,6.0,24,0.00,,,0.00,Wunderground v.1.15,2013-10-08 22:53:00,
2013-10-08 16:59:00,61.6,23.4,29.85,NNW,327,3.0,5.0,23,0.00,,,0.00,Wunderground v.1.15,2013-10-08 22:59:00,
2013-10-08 17:08:00,61.3,23.1,29.85,NNW,347,3.0,3.0,23,0.00,,,0.00,Wunderground v.1.15,2013-10-08 23:08:00,
2013-10-08 17:13:00,60.7,24.6,29.85,North,349,2.0,3.0,25,0.00,,,0.00,Wunderground v.1.15,2013-10-08 23:13:00,
2013-10-08 17:18:00,60.3,25.2,29.85,NNW,328,1.0,1.0,26,0.00,,,0.00,Wunderground v.1.15,2013-10-08 23:18:00,
2013-10-08 17:23:00,59.4,25.4,29.85,NW,321,1.0,1.0,27,0.00,,,0.00,Wunderground v.1.15,2013-10-08 23:23:00,
2013-10-08 17:28:00,58.7,25.6,29.85,West,272,1.0,1.0,28,0.00,,,0.00,Wunderground v.1.15,2013-10-08 23:28:00,
2013-10-08 17:38:00,58.1,26.0,29.85,NW,324,0.0,0.0,29,0.00,,,0.00,Wunderground v.1.15,2013-10-08 23:38:00,
2013-10-08 17:43:00,56.9,25.7,29.85,WSW,252,0.0,0.0,30,0.00,,,0.00,Wunderground v.1.15,2013-10-08 23:43:00,
2013-10-08 17:48:00,55.9,27.2,29.85,WSW,241,0.0,0.0,33,0.00,,,0.00,Wunderground v.1.15,2013-10-08 23:48:00,
2013-10-08 17:53:00,54.5,29.4,29.85,WSW,241,0.0,0.0,38,0.00,,,0.00,Wunderground v.1.15,2013-10-08 23:53:00,
2013-10-08 17:59:00,53.8,28.8,29.85,WSW,241,0.0,0.0,38,0.00,,,0.00,Wunderground v.1.15,2013-10-08 23:59:00,
2013-10-08 18:09:00,52.6,28.9,29.86,WSW,241,0.0,0.0,40,0.00,,,0.00,Wunderground v.1.15,2013-10-09 00:09:00,
2013-10-08 18:14:00,52.0,28.4,29.85,WSW,240,0.0,0.0,40,0.00,,,0.00,Wunderground v.1.15,2013-10-09 00:14:00,
2013-10-08 18:23:00,50.3,29.7,29.86,WSW,240,0.0,0.0,45,0.00,,,0.00,Wunderground v.1.15,2013-10-09 00:23:00,
2013-10-08 18:28:00,49.6,29.6,29.85,WSW,240,0.0,0.0,46,0.00,,,0.00,Wunderground v.1.15,2013-10-09 00:28:00,
2013-10-08 18:34:00,49.4,28.9,29.85,WSW,240,0.0,0.0,45,0.00,,,0.00,Wunderground v.1.15,2013-10-09 00:34:00,
2013-10-08 18:44:00,48.5,30.7,29.85,WSW,240,0.0,0.0,50,0.00,,,0.00,Wunderground v.1.15,2013-10-09 00:44:00,
2013-10-08 18:53:00,47.5,30.3,29.85,East,101,0.0,0.0,51,0.00,,,0.00,Wunderground v.1.15,2013-10-09 00:53:00,
2013-10-08 18:59:00,47.3,29.1,29.85,East,101,0.0,0.0,49,0.00,,,0.00,Wunderground v.1.15,2013-10-09 00:59:00,
2013-10-08 19:08:00,46.7,29.5,29.86,ESE,102,0.0,0.0,51,0.00,,,0.00,Wunderground v.1.15,2013-10-09 01:08:00,
2013-10-08 19:13:00,46.4,30.2,29.86,East,82,0.0,2.0,53,0.00,,,0.00,Wunderground v.1.15,2013-10-09 01:13:00,
2013-10-08 19:24:00,45.9,29.2,29.86,East,84,0.0,2.0,52,0.00,,,0.00,Wunderground v.1.15,2013-10-09 01:24:00,
2013-10-08 19:29:00,45.6,29.4,29.86,East,84,0.0,0.0,53,0.00,,,0.00,Wunderground v.1.15,2013-10-09 01:29:00,
2013-10-08 19:38:00,45.0,29.8,29.87,East,84,0.0,0.0,55,0.00,,,0.00,Wunderground v.1.15,2013-10-09 01:38:00,
2013-10-08 19:44:00,44.8,30.0,29.87,East,84,0.0,0.0,56,0.00,,,0.00,Wunderground v.1.15,2013-10-09 01:44:00,
2013-10-08 19:49:00,44.8,29.6,29.87,East,84,0.0,0.0,55,0.00,,,0.00,Wunderground v.1.15,2013-10-09 01:49:00,
2013-10-08 19:59:00,44.4,29.2,29.87,East,85,0.0,0.0,55,0.00,,,0.00,Wunderground v.1.15,2013-10-09 01:59:00,
2013-10-08 20:08:00,44.6,29.4,29.87,East,87,1.0,1.0,55,0.00,,,0.00,Wunderground v.1.15,2013-10-09 02:08:00,
2013-10-08 20:14:00,44.4,30.1,29.87,East,87,0.0,1.0,57,0.00,,,0.00,Wunderground v.1.15,2013-10-09 02:14:00,
2013-10-08 20:19:00,44.2,29.0,29.87,ESE,104,0.0,0.0,55,0.00,,,0.00,Wunderground v.1.15,2013-10-09 02:19:00,
2013-10-08 20:24:00,44.1,29.4,29.87,East,101,0.0,0.0,56,0.00,,,0.00,Wunderground v.1.15,2013-10-09 02:24:00,
2013-10-08 20:34:00,43.7,29.0,29.87,ESE,109,0.0,0.0,56,0.00,,,0.00,Wunderground v.1.15,2013-10-09 02:34:00,
2013-10-08 20:39:00,43.9,28.8,29.87,ENE,63,0.0,0.0,55,0.00,,,0.00,Wunderground v.1.15,2013-10-09 02:39:00,
2013-10-08 20:44:00,44.2,28.6,29.87,ESE,105,1.0,1.0,54,0.00,,,0.00,Wunderground v.1.15,2013-10-09 02:44:00,
2013-10-08 20:49:00,44.2,28.6,29.87,SSW,194,1.0,1.0,54,0.00,,,0.00,Wunderground v.1.15,2013-10-09 02:49:00,
2013-10-08 20:59:00,43.8,28.2,29.87,SW,224,0.0,0.0,54,0.00,,,0.00,Wunderground v.1.15,2013-10-09 02:59:00,
2013-10-08 21:08:00,43.6,28.0,29.87,ESE,108,0.0,0.0,54,0.00,,,0.00,Wunderground v.1.15,2013-10-09 03:08:00,
2013-10-08 21:18:00,43.8,28.2,29.87,SSW,205,1.0,1.0,54,0.00,,,0.00,Wunderground v.1.15,2013-10-09 03:18:00,
2013-10-08 21:24:00,43.6,27.6,29.87,SSW,202,2.0,2.0,53,0.00,,,0.00,Wunderground v.1.15,2013-10-09 03:24:00,
2013-10-08 21:29:00,43.4,27.8,29.88,ENE,71,1.0,1.0,54,0.00,,,0.00,Wunderground v.1.15,2013-10-09 03:29:00,
2013-10-08 21:38:00,43.0,27.9,29.88,East,79,1.0,1.0,55,0.00,,,0.00,Wunderground v.1.15,2013-10-09 03:38:00,
2013-10-08 21:44:00,43.0,27.5,29.88,East,94,2.0,2.0,54,0.00,,,0.00,Wunderground v.1.15,2013-10-09 03:44:00,
2013-10-08 21:54:00,42.3,28.1,29.88,ESE,104,1.0,2.0,57,0.00,,,0.00,Wunderground v.1.15,2013-10-09 03:54:00,
2013-10-08 21:59:00,42.1,27.5,29.88,East,89,2.0,6.0,56,0.00,,,0.00,Wunderground v.1.15,2013-10-09 03:59:00,
2013-10-08 22:04:00,42.4,27.8,29.88,SSW,213,4.0,6.0,56,0.00,,,0.00,Wunderground v.1.15,2013-10-09 04:04:00,
2013-10-08 22:09:00,42.5,27.5,29.88,East,96,4.0,7.0,55,0.00,,,0.00,Wunderground v.1.15,2013-10-09 04:09:00,
2013-10-08 22:13:00,42.6,27.5,29.88,ESE,115,4.0,10.0,55,0.00,,,0.00,Wunderground v.1.15,2013-10-09 04:13:00,
2013-10-08 22:18:00,42.6,28.0,29.88,East,93,4.0,9.0,56,0.00,,,0.00,Wunderground v.1.15,2013-10-09 04:18:00,
2013-10-08 22:23:00,42.4,27.8,29.88,ENE,76,4.0,11.0,56,0.00,,,0.00,Wunderground v.1.15,2013-10-09 04:23:00,
2013-10-08 22:28:00,42.8,27.3,29.89,East,101,6.0,8.0,54,0.00,,,0.00,Wunderground v.1.15,2013-10-09 04:28:00,
2013-10-08 22:34:00,43.3,27.3,29.89,East,93,7.0,8.0,53,0.00,,,0.00,Wunderground v.1.15,2013-10-09 04:34:00,
2013-10-08 22:38:00,43.4,26.9,29.89,ENE,77,6.0,6.0,52,0.00,,,0.00,Wunderground v.1.15,2013-10-09 04:38:00,
2013-10-08 22:43:00,43.4,26.9,29.89,East,91,6.0,7.0,52,0.00,,,0.00,Wunderground v.1.15,2013-10-09 04:43:00,
2013-10-08 22:48:00,43.4,26.9,29.89,East,90,7.0,7.0,52,0.00,,,0.00,Wunderground v.1.15,2013-10-09 04:48:00,
2013-10-08 22:53:00,43.3,26.8,29.89,ESE,103,6.0,7.0,52,0.00,,,0.00,Wunderground v.1.15,2013-10-09 04:53:00,
2013-10-08 22:59:00,43.1,27.1,29.89,East,92,6.0,6.0,53,0.00,,,0.00,Wunderground v.1.15,2013-10-09 04:59:00,
2013-10-08 23:09:00,42.8,26.8,29.89,East,92,6.0,9.0,53,0.00,,,0.00,Wunderground v.1.15,2013-10-09 05:09:00,
2013-10-08 23:14:00,42.9,26.9,29.88,East,99,6.0,9.0,53,0.00,,,0.00,Wunderground v.1.15,2013-10-09 05:14:00,
2013-10-08 23:19:00,42.6,27.1,29.88,East,101,6.0,6.0,54,0.00,,,0.00,Wunderground v.1.15,2013-10-09 05:19:00,
2013-10-08 23:24:00,42.2,27.2,29.88,East,82,6.0,6.0,55,0.00,,,0.00,Wunderground v.1.15,2013-10-09 05:24:00,
2013-10-08 23:29:00,42.1,26.6,29.88,East,90,6.0,6.0,54,0.00,,,0.00,Wunderground v.1.15,2013-10-09 05:29:00,
2013-10-08 23:39:00,42.0,26.5,29.88,East,86,5.0,5.0,54,0.00,,,0.00,Wunderground v.1.15,2013-10-09 05:39:00,
2013-10-08 23:44:00,41.8,26.8,29.88,ENE,76,5.0,5.0,55,0.00,,,0.00,Wunderground v.1.15,2013-10-09 05:44:00,
2013-10-08 23:53:00,41.7,26.7,29.87,ENE,57,6.0,7.0,55,0.00,,,0.00,Wunderground v.1.15,2013-10-09 05:53:00,
2013-10-08 23:59:00,41.4,26.4,29.87,East,79,5.0,5.0,55,0.00,,,0.00,Wunderground v.1.15,2013-10-09 05:59:00,